Tracking 19706 objects as of 16-Jun-2019
HD Live streaming from Space Station
objects crossing your sky now

STARLINK OBJ X

Track STARLINK OBJ X now!
10-day predictions


NORAD ID: 44256
Int'l Code: 2019-029X
Perigee: 542.7 km
Apogee: 545.8 km
Inclination: 53.0 °
Period: 95.4 minutes
Semi major axis: 6915 km
RCS: Unknown
Launch date: May 24, 2019
Source: United States (US)
Launch site: AIR FORCE EASTERN TEST RANGE (AFETR)
aabbcc
Your satellite tracking list
Your tracking list is empty




NASA's NSSDC Master Catalog

Two Line Element Set (TLE):
1 44256U 19029X   19166.22051764 -.00425182  00000-0 -27643-1 0  9999
2 44256  52.9998  72.5026 0002246   8.1551 351.9475 15.09715241  3407
Source of the keplerian elements: AFSPC